Terug naar catalogus

THORAD AGENA D DEB

LostPO
NORAD 42501·DEBRIS·🇺🇸 United States

Gelanceerd Apr 8, 1970 vanaf Vandenberg Space Force Base

Loading…

Volgende Passages (komende 24 uur)

TLE

VerouderdSource: Space-Track

Epoch: Jul 29, 2024, 05:20 UTC

1 42501U 70025RF  24211.22235928  .00000624  00000-0  20478-2 0  9994
2 42501  98.7946 206.5364 0398725 116.2759 247.9877 12.80027027159680

Volg THORAD AGENA D DEB in realtime met AllMySat

Download on the App Store